Regional Weather Roundup
Issued by NWS

Home | Current Version | Previous Version | Text Only | Print | Product List | Glossary On
Versions: 1 2 3 4 5 6 7 8 9 10 11 12 13 14 15 16 17 18 19 20 21 22 23 24 25 26 27
000
ASUS46 KSEW 192010
RWRWA

WASHINGTON REGIONAL WEATHER ROUNDUP
NATIONAL WEATHER SERVICE SEATTLE WA
100 PM PDT SAT APR 19 2014

NOTE:"FAIR" INDICATES FEW OR NO CLOUDS BELOW 12,000 FEET WITH NO
SIGNIFICANT WEATHER AND/OR OBSTRUCTIONS TO VISIBILITY.

WAZ505-507>509-192100-
SEATTLE, TACOMA, EVERETT, AND VICINITY

CITY           SKY/WX    TMP DP  RH WIND       PRES   REMARKS
EVERETT        LGT RAIN  46  42  86 S16G29    29.86R
BOEING FIELD   LGT RAIN  49  44  83 SE12      29.88R
RENTON         LGT RAIN  47  46  97 E5        29.88S FOG
SEATAC AIRPORT LGT RAIN  47  43  86 SE12G21   29.87F FOG
JBLM-MCCHORD   LGT RAIN  47  46  99 S10       29.88R
PUYALLUP       LGT RAIN  46  46 100 SE5       29.87F
JBLM-FT LEWIS  DRIZZLE   47  44  92 SE12      29.87S
TACOMA NARROWS LGT RAIN  47  42  83 S9        29.87S
$$

WAZ001-503-506-510-514-515-192100-
NORTH INTERIOR

CITY           SKY/WX    TMP DP  RH WIND       PRES   REMARKS
BELLINGHAM     CLOUDY    53  40  61 S14G22    29.78R
FRIDAY HARBOR  CLOUDY    49  41  74 SE18G24   29.80R
EASTSOUND      CLOUDY    52  39  62 S18G31    29.75R
PORT ANGELES   CLOUDY    48  40  73 N3        29.78R
NAS WHIDBEY    CLOUDY    52  41  66 SE33G43   29.81R
BURLINGTON     CLOUDY    48  43  81 SE14G24   29.83S
$$

WAZ020-022-039-040-504-511-512-192100-
SOUTHWEST INTERIOR

CITY           SKY/WX    TMP DP  RH WIND       PRES   REMARKS
SHELTON        LGT RAIN  45  44  97 SE7       29.85R FOG
OLYMPIA        LGT RAIN  47  43  86 S12G23    29.88R
CHEHALIS       CLOUDY    48  45  87 S12G17    29.92R
KELSO          CLOUDY    52  43  71 S14G24    29.95R
VANCOUVER      CLOUDY    53  44  71 SE9       29.96R
SCAPPOOSE, OR  CLOUDY    52  45  77 S6        29.94R
PORTLAND, OR   CLOUDY    54  46  74 S16       29.96R
$$

WAZ021-516-517-192100-
WASHINGTON COAST

CITY           SKY/WX    TMP DP  RH WIND       PRES   REMARKS
FORKS          LGT RAIN  49  47  93 VRB5      29.79R FOG
HOQUIAM        CLOUDY    53  51  93 S14       29.85R
ASTORIA, OR    LGT RAIN  55  49  80 SW14G24   29.89R
$$

WAZ019-023-024-040-518-519-192100-
CASCADE MOUNTAINS AND COLUMBIA GORGE

CITY           SKY/WX    TMP DP  RH WIND       PRES   REMARKS
STAMPEDE PASS  NOT AVBL
TROUTDALE, OR  PTSUNNY   54  46  74 S14       29.96R
THE DALLES, OR CLOUDY    59  38  45 NW14G20   29.89R
$$

WAZ026-027-041>044-520-521-192100-
EAST SLOPES

CITY           SKY/WX    TMP DP  RH WIND       PRES   REMARKS
OMAK           CLOUDY    57  29  34 VRB6      29.83F
WENATCHEE      MOSUNNY   58  25  28 S3        29.81F
ELLENSBURG     SUNNY     58  30  34 VRB5      29.80F
YAKIMA         MOSUNNY   62  28  27 SE10      29.82F
$$

WAZ028-034-035-192100-
COLUMBIA BASIN

CITY           SKY/WX    TMP DP  RH WIND       PRES   REMARKS
EPHRATA        PTSUNNY   57  26  30 SE7       29.81F
MOSES LAKE     CLOUDY    60  27  28 SE8       29.82F
HANFORD        NOT AVBL
PASCO          SUNNY     58  36  43 VRB3      29.86F
HERMISTON, OR  PTSUNNY   59  35  40 VRB3      29.85F
$$

WAZ036>038-192100-
NORTHEAST WASHINGTON

CITY           SKY/WX    TMP DP  RH WIND       PRES   REMARKS
SPOKANE GEIGER PTSUNNY   58  31  35 SE7       29.83F
SPOKANE FELTS  PTSUNNY   60  31  33 E6        29.84F
FAIRCHILD AFB  CLOUDY    58  36  42 E6        29.83F
COEURDALENE,ID CLOUDY    57  34  41 CALM      29.85F
DEER PARK      CLOUDY    57  30  35 S8        29.85F
$$

WAZ029>033-192100-
SOUTHEAST WASHINGTON

CITY           SKY/WX    TMP DP  RH WIND       PRES   REMARKS
PULLMAN        MOSUNNY   62  30  29 SE10G17   29.86F
LEWISTON, ID   SUNNY     63  28  26 E7        29.82F
WALLA WALLA    MOSUNNY   58  36  43 SW5       29.85F
PENDLETON, OR  PTSUNNY   58  36  43 W20       29.85R
$$



USA.gov is the U.S. government's official web portal to all federal, state and local government web resources and services.